Probability
10 26 39 48 52 52 55 52 52 55 52 52 55 58 58 55 45 45 42 42 45 42 42 39 35 35 29 26 19 19 19 16 13 10 10 6 10 3 3 0 0 0 6
10 29 35 45 48 55 55 52 52 48 45 48 48 55 52 52 45 45 48 48 45 39 42 35 32 32 23 16 23 23 16 13 6 6 3 0 0 3 3 3 0 0 3
10 32 32 58 52 48 52 52 52 45 45 42 45 42 45 45 45 45 45 48 45 32 32 35 35 26 23 19 19 19 19 6 6 6 0 0 0 3 3 3 3 0 3
10 23 29 45 52 52 52 45 45 45 48 45 39 42 45 45 42 42 45 52 45 39 35 42 29 29 23 23 19 16 13 6 6 0 0 0 0 0 3 3 3 3 3
19 23 23 42 39 48 45 45 45 42 42 39 35 35 35 45 42 39 45 48 42 42 42 32 26 26 23 23 16 13 10 3 0 0 0 0 0 0 0 3 3 6 3
19 23 26 42 39 42 42 39 42 35 26 29 35 35 32 35 39 39 39 45 45 45 39 29 19 19 23 19 13 10 6 0 0 0 0 0 0 3 0 3 3 3 3
19 19 29 39 42 39 32 26 39 32 29 32 32 35 35 26 29 32 32 32 42 39 32 23 16 13 16 19 13 10 3 0 0 0 0 0 0 3 0 3 6 6 3
19 23 29 35 32 32 29 29 29 45 39 39 39 42 35 32 29 29 32 29 26 32 26 16 13 13 13 13 13 10 0 0 0 0 0 0 0 6 6 3 6 6 3
19 26 29 29 19 19 23 26 29 32 42 42 39 39 32 26 29 29 26 23 23 19 26 19 13 13 10 13 13 3 0 0 0 0 0 0 3 3 6 6 0 3 3
23 23 19 16 16 16 19 23 19 19 19 32 29 16 13 10 10 23 19 19 19 19 19 19 16 16 16 6 6 0 0 0 0 0 3 0 3 3 3 3 0 6 3
26 16 13 10 19 19 16 13 13 10 3 6 6 6 6 6 13 13 6 6 6 16 19 13 10 16 6 3 3 0 0 0 0 0 3 0 0 3 3 3 0 3 3
23 19 16 10 23 16 13 13 23 10 6 6 10 6 10 13 10 10 0 0 3 3 6 13 13 10 3 3 0 0 0 0 0 0 3 0 0 3 0 3 3 3 6
19 16 16 10 13 16 16 10 19 13 10 6 6 6 13 13 13 13 13 3 3 0 3 10 10 6 3 3 3 0 0 0 0 0 0 0 0 0 0 3 3 3 3
16 13 13 10 6 10 13 13 13 10 3 3 6 6 13 10 13 16 13 10 3 3 6 10 10 6 6 0 3 0 0 0 0 0 0 0 0 0 0 0 3 3 3
10 13 16 13 10 16 13 6 3 3 0 0 10 10 6 10 10 13 10 6 3 3 6 3 0 0 3 0 0 0 0 0 0 0 0 0 0 0 3 3 3 3 3
10 10 13 10 13 10 13 3 3 3 3 3 6 10 10 10 10 13 6 3 6 6 3 0 0 0 3 0 0 0 0 0 0 0 0 0 0 0 3 0 0 0 0
3 6 6 10 13 10 6 6 3 3 3 3 3 6 10 10 10 10 6 6 3 3 3 0 0 0 0 0 0 0 0 0 0 0 0 0 0 0 0 0 0 0 0
0 3 0 0 3 6 3 3 3 3 3 3 3 10 6 6 10 6 6 6 3 3 0 0 0 0 0 0 0 0 0 0 0 0 0 0 0 0 0 0 0 0 0
0 0 0 3 6 3 3 6 6 3 0 3 3 3 6 6 6 6 6 6 6 3 0 0 0 0 0 0 0 0 0 0 0 0 0 0 0 0 3 0 0 0 0
0 0 0 0 0 6 6 10 6 3 0 0 0 0 0 3 3 3 3 0 0 3 3 0 0 0 0 0 0 0 0 0 0 0 0 0 0 0 0 0 0 0 0
0 0 0 0 0 0 3 3 0 0 0 0 0 0 0 0 0 3 0 0 0 3 0 0 0 0 0 0 0 0 0 0 0 0 0 0 0 0 0 0 0 0 0
0 0 0 0 0 0 3 3 0 0 0 3 0 0 0 0 0 0 0 0 0 0 0 0 0 0 0 0 0 0 0 0 0 0 0 0 0 0 0 0 0 0 0
0 0 0 0 0 0 3 0 0 0 0 0 0 0 0 3 3 3 0 0 0 0 0 0 0 0 0 0 0 0 0 0 0 0 0 0 0 0 0 0 0 0 0
0 0 0 0 0 0 0 0 0 0 0 0 0 0 0 0 0 0 0 0 0 0 0 0 0 0 0 0 0 0 0 0 0 0 0 0 0 0 0 0 0 0 0
0 0 0 0 0 0 0 0 0 0 0 0 0 0 0 0 0 0 0 0 0 0 0 0 0 0 0 0 0 0 0 0 0 0 0 0 0 0 0 0 0 0 0
0 0 0 0 0 0 0 0 0 0 0 0 0 0 0 0 0 0 0 0 0 0 0 0 0 0 0 0 0 0 0 0 0 0 0 0 0 0 0 0 0 0 0
Height
5851 5852 5853 5854 5855 5856 5857 5858 5859 5860 5861 5862 5863 5864 5865 5865 5866 5867 5868 5869 5870 5870 5871 5872 5872 5873 5874 5874 5875 5875 5876 5876 5876 5876 5876 5876 5876 5876 5875 5875 5875 5874 5873
5848 5849 5850 5851 5852 5853 5854 5855 5856 5857 5859 5860 5861 5862 5862 5863 5864 5865 5866 5867 5868 5869 5870 5870 5871 5872 5872 5873 5873 5874 5874 5875 5875 5875 5875 5875 5875 5875 5874 5874 5874 5873 5872
5844 5845 5846 5848 5849 5849 5851 5852 5853 5854 5856 5857 5858 5859 5860 5861 5862 5863 5864 5865 5866 5867 5868 5869 5870 5870 5871 5871 5872 5872 5872 5873 5873 5873 5873 5873 5873 5873 5873 5873 5872 5872 5871
5840 5841 5842 5844 5845 5846 5847 5848 5850 5851 5852 5853 5855 5856 5857 5858 5859 5860 5862 5863 5864 5865 5866 5867 5868 5868 5869 5870 5870 5870 5871 5871 5871 5871 5872 5872 5871 5871 5871 5871 5871 5870 5870
5835 5836 5838 5839 5841 5842 5843 5844 5846 5847 5849 5850 5851 5853 5854 5855 5856 5858 5859 5860 5861 5862 5863 5864 5865 5866 5867 5867 5868 5868 5869 5869 5869 5869 5869 5869 5869 5869 5869 5869 5869 5868 5868
5829 5831 5833 5834 5836 5837 5838 5839 5841 5843 5844 5846 5848 5849 5851 5852 5853 5855 5856 5857 5858 5860 5861 5862 5863 5863 5864 5865 5865 5866 5866 5867 5867 5867 5867 5867 5867 5867 5867 5867 5867 5866 5866
5824 5826 5827 5829 5830 5831 5833 5834 5836 5838 5840 5842 5844 5846 5847 5849 5850 5851 5853 5854 5855 5856 5858 5859 5860 5861 5861 5862 5863 5863 5864 5864 5864 5864 5864 5865 5865 5865 5865 5865 5864 5864 5863
5818 5820 5821 5823 5825 5826 5828 5829 5831 5833 5835 5837 5839 5841 5843 5845 5847 5848 5849 5851 5852 5853 5854 5855 5856 5857 5858 5859 5859 5860 5861 5861 5861 5861 5862 5862 5862 5862 5862 5862 5861 5861 5860
5811 5813 5815 5817 5818 5820 5822 5825 5827 5829 5831 5833 5835 5837 5839 5841 5843 5844 5846 5847 5849 5850 5851 5852 5853 5854 5855 5855 5856 5857 5857 5858 5858 5858 5858 5859 5859 5859 5859 5859 5858 5858 5858
5805 5806 5808 5810 5812 5814 5817 5819 5822 5824 5826 5828 5830 5833 5835 5837 5839 5840 5842 5844 5845 5846 5847 5848 5849 5850 5851 5851 5852 5853 5853 5854 5854 5855 5855 5855 5856 5856 5856 5856 5855 5855 5854
5797 5799 5801 5803 5806 5808 5811 5813 5816 5818 5820 5823 5825 5828 5830 5832 5834 5836 5838 5840 5841 5842 5843 5844 5845 5846 5847 5847 5848 5849 5849 5850 5850 5851 5851 5852 5852 5852 5852 5852 5852 5851 5851
5790 5792 5794 5797 5799 5802 5804 5807 5810 5812 5815 5817 5820 5823 5825 5828 5830 5832 5834 5836 5837 5838 5839 5841 5841 5842 5843 5843 5844 5844 5845 5846 5846 5847 5848 5848 5848 5848 5848 5848 5848 5847 5847
5782 5784 5786 5789 5792 5795 5798 5801 5803 5806 5809 5812 5814 5817 5820 5822 5825 5827 5829 5831 5833 5834 5835 5836 5837 5838 5839 5839 5840 5840 5841 5842 5842 5843 5844 5844 5844 5844 5844 5844 5844 5843 5843
5773 5776 5778 5781 5785 5788 5790 5793 5796 5799 5803 5806 5809 5811 5814 5817 5820 5822 5824 5826 5828 5830 5831 5832 5833 5834 5835 5835 5836 5836 5837 5838 5838 5839 5840 5840 5840 5840 5840 5840 5840 5839 5839
5765 5768 5770 5773 5777 5780 5783 5786 5789 5792 5796 5800 5803 5806 5808 5812 5815 5817 5819 5821 5823 5825 5826 5827 5828 5829 5830 5831 5831 5832 5833 5833 5834 5835 5835 5836 5836 5836 5836 5836 5835 5835 5834
5758 5760 5763 5765 5769 5773 5776 5779 5782 5786 5789 5793 5797 5800 5802 5806 5809 5811 5813 5815 5817 5819 5820 5822 5823 5824 5825 5826 5827 5827 5828 5829 5829 5830 5830 5831 5831 5831 5831 5831 5831 5830 5830
5750 5752 5754 5758 5761 5765 5769 5772 5775 5778 5782 5786 5790 5793 5796 5799 5802 5805 5807 5810 5811 5813 5815 5816 5817 5818 5820 5821 5821 5822 5823 5823 5824 5825 5825 5826 5826 5826 5826 5826 5825 5825 5824
5742 5745 5748 5751 5755 5758 5761 5764 5768 5771 5775 5779 5783 5786 5790 5792 5796 5798 5801 5803 5805 5807 5808 5809 5811 5812 5813 5814 5815 5816 5817 5818 5818 5819 5820 5820 5820 5820 5820 5820 5820 5819 5818
5735 5738 5741 5744 5747 5750 5753 5757 5761 5764 5767 5771 5775 5779 5782 5786 5789 5792 5794 5796 5798 5800 5802 5803 5804 5805 5806 5808 5808 5809 5810 5811 5812 5813 5814 5814 5814 5814 5814 5814 5813 5813 5812
5729 5732 5735 5738 5741 5743 5746 5750 5754 5757 5761 5764 5768 5772 5775 5779 5781 5784 5787 5789 5791 5793 5794 5796 5797 5798 5799 5800 5801 5802 5803 5805 5806 5807 5807 5807 5808 5808 5807 5807 5806 5806 5805
5723 5726 5729 5732 5735 5737 5740 5744 5747 5751 5754 5757 5761 5764 5767 5771 5774 5777 5779 5781 5783 5785 5787 5788 5789 5790 5791 5792 5793 5795 5796 5797 5798 5799 5800 5800 5801 5800 5800 5800 5799 5799 5798
5718 5721 5724 5726 5729 5732 5735 5738 5741 5744 5747 5750 5753 5756 5759 5763 5766 5768 5771 5773 5775 5777 5779 5780 5781 5782 5783 5784 5786 5787 5788 5790 5791 5792 5793 5793 5793 5793 5793 5792 5792 5791 5791
5713 5716 5718 5721 5723 5725 5728 5730 5733 5737 5739 5743 5746 5749 5752 5754 5757 5760 5762 5765 5767 5769 5770 5772 5773 5774 5775 5777 5778 5779 5781 5782 5784 5785 5785 5785 5785 5786 5785 5785 5785 5784 5784
5707 5709 5712 5714 5717 5719 5721 5724 5727 5730 5733 5736 5739 5741 5744 5746 5749 5752 5754 5757 5759 5760 5762 5764 5765 5766 5767 5769 5770 5771 5773 5774 5775 5777 5778 5778 5778 5778 5778 5777 5777 5777 5776
5700 5703 5705 5708 5710 5713 5715 5718 5721 5724 5727 5729 5732 5734 5736 5738 5741 5744 5746 5748 5750 5752 5753 5755 5757 5758 5759 5761 5762 5763 5764 5765 5766 5768 5769 5770 5770 5769 5769 5769 5769 5769 5768
5692 5696 5699 5701 5704 5707 5709 5711 5714 5717 5719 5722 5724 5726 5728 5731 5733 5736 5738 5740 5741 5743 5745 5746 5748 5749 5751 5752 5753 5754 5755 5756 5757 5758 5760 5760 5761 5761 5761 5760 5760 5760 5760
Wind_Speed
16 15 14 14 13 13 13 14 15 15 14 14 13 13 13 13 13 12 12 11 10 9 8 8 7 7 6 6 5 5 4 4 4 4 4 4 4 4 4 5 6 6 6
18 17 16 16 15 15 15 15 15 15 15 15 15 15 14 14 14 13 13 12 11 10 9 8 8 8 7 7 6 6 5 5 5 5 5 5 5 5 6 6 6 7 7
20 19 18 18 17 16 17 16 16 16 16 16 16 16 15 15 15 14 14 13 12 11 10 10 9 9 8 8 7 7 7 7 7 6 6 7 7 7 7 7 8 8 8
22 21 21 19 18 18 18 18 18 18 17 17 17 16 16 16 16 16 15 15 13 13 12 11 10 10 9 9 8 8 8 8 8 8 8 8 8 8 8 8 9 9 9
23 23 22 22 21 20 20 19 19 19 19 18 18 17 17 17 17 17 16 16 15 14 13 13 12 12 11 10 10 10 9 9 10 10 10 10 10 10 10 10 10 10 10
25 25 24 24 23 22 21 21 21 20 20 20 19 18 18 17 17 17 17 17 16 15 14 14 13 13 13 12 12 11 11 11 11 11 11 11 11 11 11 11 12 12 12
27 26 26 25 24 23 23 22 22 21 21 21 20 20 19 18 18 17 17 18 17 16 16 15 15 15 15 14 14 13 13 13 13 13 12 12 12 12 12 12 13 13 13
29 28 27 26 25 25 24 24 23 23 23 22 22 21 20 20 19 19 18 18 17 17 17 17 16 16 16 15 15 15 14 14 14 14 14 14 14 13 13 14 14 14 14
29 29 29 28 28 28 26 25 24 24 24 24 23 23 22 21 21 20 19 19 18 18 18 18 18 17 17 17 17 16 16 16 15 15 15 15 15 15 15 15 15 15 15
31 30 30 29 29 29 28 27 26 25 25 25 24 24 23 22 22 21 21 20 19 19 19 19 19 18 18 18 18 18 18 17 17 17 17 16 16 16 16 16 17 17 17
31 31 31 31 30 31 30 29 28 27 27 26 26 25 25 24 23 22 21 21 20 20 19 19 19 19 18 19 19 19 19 18 18 18 18 17 17 17 17 17 17 18 18
32 31 31 31 31 32 31 30 29 29 29 28 27 27 26 25 24 23 22 21 21 21 20 20 20 20 19 19 19 20 19 19 19 19 19 18 18 18 18 18 18 18 18
33 32 32 32 32 32 32 32 31 30 30 30 29 28 27 27 26 25 24 23 22 21 21 20 21 21 20 20 20 20 20 19 19 19 19 19 19 19 19 18 18 19 19
33 33 33 33 33 33 33 33 32 32 31 30 30 29 29 28 27 26 25 24 23 22 21 21 21 21 21 21 21 21 21 20 20 20 20 20 20 20 20 19 19 20 20
34 33 33 33 33 33 34 34 34 33 32 32 31 30 29 29 28 27 26 25 25 24 23 23 22 22 22 22 22 22 22 22 22 21 21 21 22 22 21 21 21 21 21
35 34 34 33 32 34 35 34 34 34 33 33 33 32 30 30 30 28 27 27 27 26 25 24 24 23 24 23 23 23 23 23 23 23 23 22 23 23 23 23 23 22 22
35 35 34 32 32 33 34 35 35 34 34 34 34 33 32 31 31 30 29 28 28 28 28 27 26 25 25 24 25 25 25 25 25 25 24 24 24 24 24 25 25 24 25
34 34 33 33 33 34 35 36 36 36 36 36 36 34 34 33 33 32 30 29 30 30 29 29 28 28 27 27 27 28 27 27 26 26 26 26 26 25 26 26 26 26 26
32 32 32 31 32 34 34 35 36 35 37 37 36 35 34 34 33 33 32 32 32 32 32 31 31 31 30 29 29 29 29 29 28 28 28 27 27 27 27 27 28 28 28
31 31 31 31 32 34 35 36 36 36 36 37 36 36 36 36 35 35 35 34 34 33 33 33 33 33 32 32 32 31 31 31 31 30 29 29 29 29 29 29 29 29 29
30 28 29 29 30 32 34 35 35 36 36 36 35 35 35 36 36 36 37 35 35 35 34 34 35 34 34 34 33 32 33 32 32 31 31 31 30 30 30 30 30 30 30
30 29 28 29 30 31 33 34 34 35 36 36 36 35 36 37 36 36 37 37 37 36 36 34 35 35 35 34 34 34 34 34 34 33 33 32 32 32 31 31 30 31 31
31 29 29 28 29 29 31 32 34 36 36 35 35 35 36 38 38 37 36 38 38 38 37 36 36 36 36 36 35 35 34 35 34 34 34 34 34 33 33 33 32 32 32
31 31 31 30 29 31 31 32 34 35 35 35 35 35 36 37 38 38 38 39 39 39 39 38 36 36 37 37 37 37 36 36 36 35 35 35 35 35 34 34 33 33 33
31 32 32 31 30 30 31 32 33 34 33 34 35 36 36 37 38 39 38 39 40 40 40 40 38 37 37 37 38 38 38 37 37 37 37 37 37 36 36 36 35 35 35
33 34 33 31 32 31 31 31 33 34 33 33 35 36 36 37 39 40 39 39 40 41 41 41 41 40 40 40 40 40 39 39 39 39 39 38 38 37 38 38 37 36 36
Wind_Direction
234 233 233 233 230 228 226 222 221 222 223 222 219 217 215 213 212 208 207 208 206 203 204 206 207 210 214 219 226 233 242 249 252 260 273 285 294 301 310 319 323 324 326
234 234 234 235 233 230 228 227 226 226 226 226 224 220 218 217 217 216 213 212 212 211 212 214 215 219 223 225 232 238 245 250 254 262 272 279 286 293 299 306 311 315 318
234 235 234 234 234 233 231 229 229 227 227 227 226 223 221 220 220 220 219 215 216 220 221 221 222 225 226 228 233 240 247 251 255 261 270 276 280 285 291 296 302 306 309
235 236 235 235 234 233 233 232 229 228 228 227 226 224 223 221 221 221 222 219 220 224 226 226 227 228 230 232 237 244 250 253 255 261 267 272 276 281 285 290 296 301 305
237 237 237 237 237 235 234 234 231 229 228 228 226 225 224 222 222 224 225 224 223 226 229 229 231 233 234 237 242 248 251 255 257 260 264 269 274 280 284 288 292 298 302
238 238 238 237 238 238 235 233 232 231 229 228 228 226 225 224 223 224 227 229 228 228 232 234 235 237 238 241 245 248 252 255 258 261 264 267 272 277 282 286 289 294 297
239 238 238 238 238 236 234 233 233 231 230 228 228 227 226 226 226 226 228 231 232 231 234 237 239 240 242 245 246 249 252 256 259 262 265 268 272 276 280 284 287 291 294
239 238 238 239 237 234 232 231 232 231 230 229 228 228 228 228 229 230 231 233 233 235 237 239 241 243 245 246 247 249 252 256 260 262 265 268 272 276 279 282 286 290 292
238 239 239 238 235 233 231 231 231 231 231 230 230 229 229 229 230 232 233 234 236 238 239 240 243 245 247 248 248 250 253 257 261 263 266 268 271 275 279 281 285 287 289
238 238 239 237 235 232 230 230 230 231 232 231 230 230 229 230 231 233 235 235 237 239 240 241 245 248 248 250 250 251 253 257 261 264 267 269 272 276 279 282 284 285 287
238 238 237 236 234 232 230 230 229 231 232 232 231 230 230 230 232 234 236 237 239 240 242 244 247 250 251 252 253 253 255 258 261 264 267 271 273 276 278 280 283 284 286
237 238 238 237 234 231 231 231 230 231 232 232 231 231 231 231 232 234 235 238 241 242 244 247 248 251 253 253 254 255 255 257 261 263 266 271 274 276 278 279 280 282 285
237 237 237 235 233 232 232 232 231 231 232 232 232 232 232 232 233 236 237 238 241 244 246 248 250 250 251 253 254 255 256 259 260 262 265 269 273 276 278 278 279 281 284
235 235 236 234 233 232 232 233 232 231 231 232 233 233 232 233 234 236 239 241 243 244 246 249 250 251 251 251 252 253 256 259 261 262 265 268 272 275 276 277 278 280 283
234 234 234 234 235 232 232 232 231 230 230 231 231 233 232 232 234 237 240 242 245 245 247 251 251 252 252 252 252 253 255 258 260 262 265 268 271 273 275 276 278 281 283
233 235 236 234 233 232 231 231 231 230 230 230 230 232 233 233 234 237 240 243 245 247 249 251 252 253 253 254 253 253 255 258 260 262 265 269 271 273 274 275 277 279 282
233 234 234 235 233 231 230 229 229 229 230 230 231 232 235 234 234 237 240 244 246 248 251 251 253 254 255 254 255 255 256 258 260 262 265 269 272 273 274 275 276 278 281
233 233 235 235 233 232 230 228 228 229 230 231 232 233 235 235 235 237 241 244 247 249 252 252 252 255 256 256 257 257 257 259 261 262 265 268 271 272 274 275 276 277 280
234 233 235 234 232 232 230 229 228 229 230 232 232 234 235 236 237 239 242 245 248 250 252 253 252 254 257 258 258 258 259 259 260 262 266 268 269 271 274 276 277 276 277
233 234 234 233 233 231 230 228 229 230 231 232 233 235 236 237 239 242 243 245 248 250 252 253 254 255 257 259 259 259 259 259 260 262 265 268 270 272 274 276 277 276 277
232 233 232 233 232 230 230 230 231 232 234 233 233 237 238 239 241 243 244 246 249 251 252 254 254 254 256 258 258 259 258 258 260 262 264 268 271 273 273 274 276 275 276
234 234 234 235 231 230 231 233 232 233 234 235 236 239 239 240 242 245 245 246 249 251 251 252 253 254 255 257 259 259 258 258 259 261 264 267 270 272 273 274 275 275 276
232 234 234 236 235 235 235 234 233 233 234 236 237 240 240 241 242 244 245 245 247 249 251 253 253 254 255 256 257 259 259 259 260 261 264 267 269 270 272 273 274 275 276
234 235 236 238 238 237 237 236 235 236 237 239 241 243 242 243 243 245 246 247 248 250 251 253 255 255 256 257 257 258 260 261 261 263 264 266 268 268 270 272 272 274 276
236 236 238 238 238 239 240 239 237 237 240 241 242 243 243 244 244 245 247 249 250 251 252 252 255 256 257 258 259 260 261 261 262 262 263 265 266 267 269 270 272 273 275
237 236 237 238 239 241 243 242 241 239 241 243 245 243 244 245 246 247 249 250 253 254 254 254 256 257 258 259 260 259 261 261 263 262 262 263 265 267 268 269 271 272 274